CAPE
0 0 0 0 0 0 0 0 0 0 0 0 0 0 0 0 0 0 0 20 0 64 562 734 630 398 249 35 75 88 200 190 70 20 16 6 8 6 8 5 6 4 5 6 6 6 4 0 0
0 0 0 0 0 0 0 0 0 0 0 0 0 0 0 0 0 1 14 54 28 180 598 724 680 498 364 69 95 152 194 168 45 27 25 6 7 5 4 7 6 4 4 5 4 2 0 0 0
0 0 0 0 0 0 0 0 0 0 0 0 0 0 0 0 25 41 42 100 106 372 606 708 733 577 444 144 71 178 212 159 89 101 20 4 4 5 7 7 7 5 6 7 5 2 2 0 0
0 0 0 0 0 0 0 0 0 0 0 0 0 0 0 35 35 35 58 179 294 588 618 644 764 635 494 186 29 212 232 202 165 113 24 8 3 7 7 7 8 10 7 7 6 4 4 2 0
0 0 0 0 0 0 0 0 0 0 0 0 0 0 0 0 29 34 118 312 380 652 630 641 787 717 547 244 18 243 211 141 127 21 24 12 9 6 8 6 9 7 7 8 4 6 10 2 0
0 0 0 0 0 0 0 0 0 0 0 0 0 0 0 5 32 223 287 423 544 592 553 745 778 710 391 197 66 191 239 102 17 6 22 13 11 5 6 7 5 5 5 7 9 9 6 0 0
0 0 0 0 0 0 0 0 0 0 0 0 0 0 0 0 0 42 468 577 551 535 569 637 693 593 312 143 92 128 88 4 2 5 18 9 7 6 3 6 5 5 4 4 12 10 0 0 6
0 0 0 0 0 0 0 0 0 0 0 0 0 0 0 0 0 49 681 659 523 506 448 507 456 383 259 123 71 79 2 0 3 5 8 17 8 8 5 2 7 4 5 9 12 8 0 0 5
0 0 0 0 0 0 0 0 0 0 0 0 0 0 0 0 0 330 786 590 422 403 396 451 285 179 89 49 21 7 0 0 4 7 19 9 8 3 3 0 7 10 8 13 8 5 0 0 0
0 0 0 0 0 0 0 0 0 0 0 0 0 0 0 0 0 0 51 476 391 371 442 437 271 138 31 3 4 4 0 0 7 9 8 6 3 3 1 2 4 7 21 16 10 0 0 0 0
0 0 0 0 0 0 0 0 0 0 0 0 0 0 0 0 0 0 0 0 224 394 442 435 276 148 21 2 4 4 0 1 4 12 4 1 2 1 0 4 6 0 16 12 0 0 0 0 0
0 0 0 0 0 0 0 0 0 0 0 0 0 0 0 0 0 0 0 0 0 209 488 424 261 87 18 1 0 0 0 0 3 2 4 0 2 1 0 1 0 0 0 0 0 0 0 0 0
0 0 0 0 0 0 0 0 0 0 0 0 0 0 0 0 0 0 0 0 0 0 352 307 172 61 7 0 0 0 0 0 1 1 0 1 1 1 0 0 0 0 0 0 0 0 0 0 0
0 0 0 0 0 0 0 0 0 0 0 0 0 0 0 0 0 0 0 0 0 0 28 325 128 24 1 0 0 0 0 0 0 0 1 0 0 0 0 0 0 0 0 0 0 0 0 0 0
0 0 0 0 0 0 0 0 0 0 0 0 0 0 0 0 0 0 0 0 0 0 0 34 45 2 2 0 0 0 0 0 0 0 0 0 1 0 0 0 0 0 0 0 0 0 0 0 0
0 0 0 0 0 0 0 0 0 0 0 0 0 0 0 0 0 0 0 0 0 0 0 0 88 2 2 0 0 0 0 0 0 0 0 0 0 0 0 0 0 0 0 0 0 0 0 0 0
0 0 0 0 0 0 0 0 0 0 0 0 0 0 0 0 0 0 0 0 0 0 0 1 71 13 3 2 0 0 0 0 0 0 0 0 0 0 0 0 0 0 0 0 0 0 0 0 0
0 0 0 0 0 0 0 0 0 0 0 0 0 0 0 0 0 0 0 0 0 0 0 0 15 35 3 5 9 10 1 0 0 0 0 0 0 0 0 0 0 0 0 0 0 0 0 0 0
0 0 0 0 0 0 0 0 0 0 0 0 0 0 0 0 0 0 0 0 0 5 5 0 12 37 35 41 31 18 2 1 0 0 0 0 0 0 0 0 0 0 0 0 0 0 0 0 0
0 0 0 0 0 2 0 0 0 0 0 0 0 0 0 0 0 0 0 0 5 7 0 35 98 35 88 6 35 21 16 1 0 0 0 0 0 0 0 0 0 0 0 0 0 0 0 0 0
0 0 0 0 0 0 0 0 0 0 0 0 0 0 0 0 0 0 0 0 0 7 0 0 101 107 140 46 41 31 10 3 0 0 0 0 0 0 0 0 0 0 0 0 0 0 0 0 0
0 0 0 1 0 0 0 0 0 0 0 0 0 0 0 0 0 0 0 0 0 0 0 0 141 191 180 101 34 21 0 0 1 0 0 0 0 0 0 0 0 0 0 0 0 0 0 0 0
0 0 0 0 0 0 0 0 0 0 0 0 0 0 0 0 0 0 0 0 0 0 0 0 52 3 23 61 17 12 5 0 0 0 0 0 0 0 0 0 0 0 0 0 0 0 0 0 0
0 0 0 0 0 0 0 0 0 0 0 0 0 0 0 0 0 0 0 0 0 0 20 0 5 28 47 63 79 26 10 0 0 0 0 0 0 0 0 0 0 0 0 0 0 0 0 0 0
0 0 0 0 0 0 0 0 0 0 0 1 3 0 0 0 0 0 0 0 0 0 9 2 20 2 0 13 48 14 8 0 0 0 0 0 0 0 0 0 0 0 0 0 0 0 0 0 0
1 0 0 0 0 0 0 0 0 0 0 0 0 0 0 0 0 0 0 0 0 0 0 19 20 9 0 3 0 25 3 23 9 1 0 1 0 1 0 0 0 0 0 1 1 1 1 1 0
0 0 0 0 0 0 0 0 0 0 0 0 0 0 0 0 0 0 0 0 0 0 13 65 40 0 0 0 0 0 3 2 2 3 1 7 1 1 1 1 0 0 0 0 0 0 0 1 2
0 0 0 0 0 0 0 0 0 0 0 0 0 0 0 0 0 0 0 0 0 1 2 1 0 2 7 7 1 0 5 6 7 7 6 5 5 3 3 3 2 2 2 2 2 4 3 0 0
0 0 0 0 0 0 0 0 0 0 0 1 1 1 0 1 2 1 2 6 7 7 8 9 8 8 9 10 9 2 4 7 6 5 4 6 4 3 3 3 3 2 2 2 2 2 2 1 1
0 0 0 0 0 0 0 0 0 0 0 0 1 4 3 3 4 5 6 9 9 5 8 9 9 11 9 9 9 8 3 3 3 4 4 2 3 2 3 2 2 2 2 2 1 2 2 2 1
CIN
0 0 0 0 0 0 0 0 0 0 0 0 0 0 0 0 0 0 0 -522 -76 -443 -197 -107 -81 -74 -90 -166 -77 -45 -4 -14 -48 -2 -4 -3 0 0 0 0 0 0 0 0 -1 -1 0 0 0
0 0 0 0 0 0 0 0 0 0 0 0 0 0 0 0 0 -28 -237 -433 -483 -375 -185 -115 -79 -50 -55 -147 -89 -23 -6 -17 -61 -1 -4 -3 0 0 0 0 0 0 0 0 -1 0 0 0 0
0 0 0 0 0 0 0 0 0 0 0 0 0 0 0 0 -113 -157 -365 -393 -410 -290 -192 -120 -55 -24 -26 -90 -124 -19 -5 -17 -44 -31 -7 -1 0 0 -1 0 0 0 0 -1 0 0 0 0 0
0 0 0 0 0 0 0 0 0 0 0 0 0 0 0 -74 -95 -255 -347 -363 -313 -218 -166 -131 -57 -14 -10 -48 -37 -10 -9 -6 -18 -30 -5 -2 0 0 0 0 0 0 0 0 0 0 0 0 0
0 0 0 0 0 0 0 0 0 0 0 0 0 0 0 0 -186 -276 -298 -305 -273 -172 -144 -119 -65 -25 -10 -34 -121 -8 -8 -20 -22 -71 -4 -4 -1 0 -1 0 -1 0 0 0 0 0 0 0 0
0 0 0 0 0 0 0 0 0 0 0 0 0 0 0 -84 -245 -166 -204 -226 -172 -135 -116 -50 -45 -38 -57 -67 -94 -20 -4 -39 -56 -4 -3 -7 -1 0 0 0 0 -1 0 0 0 0 0 0 0
0 0 0 0 0 0 0 0 0 0 0 0 0 0 0 0 0 -114 -72 -95 -133 -111 -96 -50 -25 -37 -76 -109 -98 -41 -46 -16 -7 -4 -3 -6 -3 -2 0 0 -1 0 0 0 0 -1 0 0 -7
0 0 0 0 0 0 0 0 0 0 0 0 0 0 0 0 0 -210 -44 -18 -85 -98 -75 -53 -39 -46 -73 -101 -99 -81 -15 -1 -7 -5 -5 -16 -7 -6 -7 -1 -1 -3 0 -1 0 -1 0 0 -8
0 0 0 0 0 0 0 0 0 0 0 0 0 0 0 0 0 -73 -8 -23 -36 -86 -78 -46 -62 -70 -100 -121 -114 -81 0 0 -7 -5 -12 -17 -14 -7 -6 -1 -2 -1 -2 -1 -2 -1 0 0 0
0 0 0 0 0 0 0 0 0 0 0 0 0 0 0 0 0 0 -35 -4 -40 -73 -83 -58 -74 -98 -115 -138 -10 -7 0 0 -8 -8 -15 -21 -11 -6 -1 -2 -1 -3 -2 -5 -3 0 0 0 0
0 0 0 0 0 0 0 0 0 0 0 0 0 0 0 0 0 0 0 0 -22 -39 -61 -63 -42 -69 -101 -4 -11 -10 0 -11 -6 -15 -14 -13 -8 -9 -5 -4 -6 -1 -4 -4 -1 0 0 0 0
0 0 0 0 0 0 0 0 0 0 0 0 0 0 0 0 0 0 0 0 0 -25 -1 -29 -32 -40 -70 -5 0 0 0 -2 -13 -11 -14 -9 -12 -6 -1 -6 0 0 0 0 0 0 0 0 0
0 0 0 0 0 0 0 0 0 0 0 0 0 0 0 0 0 0 0 0 0 0 -5 -1 -12 -57 -79 0 0 0 0 -2 -8 -10 -4 -8 -5 -8 0 0 0 0 0 0 0 0 0 0 0
0 0 0 0 0 0 0 0 0 0 0 0 0 0 0 0 0 0 0 0 0 0 -2 -3 -25 -67 -23 0 0 0 0 0 0 -3 -9 0 -7 -13 -16 0 0 0 0 0 0 0 0 0 0
0 0 0 0 0 0 0 0 0 0 0 0 0 0 0 0 0 0 0 0 0 0 0 -78 -104 0 0 0 0 0 0 0 0 0 -4 0 -2 -3 0 0 0 0 0 0 0 0 0 0 0
0 0 0 0 0 0 0 0 0 0 0 0 0 0 0 0 0 0 0 0 0 0 0 0 -12 -115 0 0 0 0 0 0 0 0 0 -1 0 0 0 0 0 0 0 0 0 0 0 0 0
0 0 0 0 0 0 0 0 0 0 0 0 0 0 0 0 0 0 0 0 0 0 0 -38 -13 -20 -4 0 -1 0 0 0 0 0 0 0 0 0 0 0 0 0 0 0 0 0 0 0 0
0 0 0 0 0 -1 0 0 0 0 0 0 0 0 0 0 0 0 0 0 0 0 0 0 -23 -6 0 0 0 -62 0 0 0 0 0 0 0 0 0 0 0 0 0 0 0 0 0 0 0
-1 0 0 0 0 -1 0 0 0 0 0 0 0 0 0 0 0 0 0 0 0 -17 -42 0 -19 0 -3 -18 -19 -38 0 0 0 0 0 0 0 0 0 0 0 0 0 0 0 0 0 0 0
0 0 0 0 0 -2 0 0 0 0 0 0 0 0 0 0 0 0 0 0 -4 -11 0 -21 -2 -3 -1 -37 -14 -27 -65 -32 0 0 0 0 0 0 0 0 0 0 0 0 0 0 0 0 0
0 0 0 0 0 0 0 0 0 0 0 0 0 0 0 0 0 0 0 0 0 -25 0 0 -3 -12 -1 0 -4 -3 -28 -29 0 0 0 0 0 0 0 0 0 0 0 0 0 0 0 0 0
0 0 0 -1 0 0 0 0 0 0 0 0 0 0 0 0 0 0 0 0 0 0 0 0 -6 -3 0 -1 -3 -18 0 0 0 0 0 0 0 0 0 0 0 0 0 0 0 0 0 0 0
0 0 0 0 0 0 0 0 0 0 0 0 0 0 0 0 0 0 0 0 0 0 0 0 -55 -62 -17 -3 -5 -10 -48 0 0 -4 0 0 0 0 0 0 0 0 0 0 0 0 0 0 0
0 0 0 0 0 0 0 0 0 0 0 0 0 0 0 0 0 0 0 0 0 0 -43 -1 -37 -23 -44 -2 0 -16 -6 0 0 0 0 0 0 0 0 0 0 0 0 0 0 0 0 0 0
0 0 0 0 0 0 0 0 0 0 0 0 0 0 0 0 0 0 0 0 0 0 -87 -142 -48 -60 0 -44 -6 -12 -22 0 0 0 0 0 0 0 0 0 0 0 0 0 0 0 0 0 0
0 0 0 0 0 0 0 -1 0 0 0 0 0 0 0 0 0 0 0 0 0 0 0 -83 -71 -113 0 -42 0 -51 -13 -33 -43 -21 0 0 0 0 0 0 0 0 0 0 0 0 0 0 0
0 0 0 0 0 0 0 0 0 0 0 0 0 0 0 0 0 0 0 0 0 0 -113 -60 -74 0 0 0 0 0 0 0 0 0 0 0 0 0 0 0 0 0 0 0 0 0 0 0 0
0 0 0 0 0 0 0 0 0 0 0 0 0 0 0 0 0 0 0 0 0 0 0 0 0 0 0 0 0 0 0 0 0 0 0 0 0 0 0 0 0 0 0 0 0 0 0 0 0
0 0 0 0 0 0 0 0 0 0 0 0 0 0 0 -1 0 0 0 0 0 0 0 0 0 0 0 0 0 0 0 0 0 0 0 0 0 0 0 0 0 0 0 0 0 0 0 0 0
0 0 0 0 0 0 0 0 0 0 0 0 0 0 0 0 0 0 0 0 0 0 0 0 0 0 0 0 0 0 0 0 0 0 0 0 0 0 0 0 0 0 0 0 0 0 0 0 0
Wind_Speed
29 28 21 22 22 23 25 23 24 22 25 23 22 21 23 28 28 26 22 2 7 8 11 12 12 13 13 12 11 11 10 10 9 9 7 8 8 9 7 9 10 11 13 13 14 13 13 12 10
29 22 20 20 26 30 30 21 27 20 22 24 25 26 27 33 27 30 22 15 6 9 11 11 12 13 13 13 12 11 11 11 10 9 7 6 6 7 7 7 9 10 12 14 16 16 14 12 11
23 20 19 23 28 31 37 30 32 29 31 33 34 28 30 26 23 22 19 11 8 9 10 11 12 13 13 13 13 11 11 10 10 9 7 6 5 5 4 6 7 9 12 15 16 17 16 15 12
23 21 22 31 33 34 35 33 31 31 29 31 31 34 27 25 25 24 20 8 9 10 10 11 13 13 12 13 13 11 12 10 10 9 8 6 6 5 4 4 5 5 9 13 14 15 15 15 13
21 23 32 37 42 42 38 37 38 40 31 27 29 36 35 32 29 25 15 10 10 11 10 12 13 13 12 12 12 11 11 9 8 7 7 7 6 6 5 4 3 4 6 8 11 13 13 13 13
26 25 37 43 46 41 38 38 42 42 36 34 35 38 36 25 26 25 16 13 12 13 13 14 13 13 13 12 12 11 11 9 8 8 7 8 7 8 7 5 4 2 3 5 7 9 10 10 12
29 31 41 46 49 47 42 38 38 42 42 35 33 37 32 29 33 30 20 16 14 14 15 16 15 14 13 13 13 12 11 10 9 9 10 8 9 9 9 8 6 4 2 1 3 5 7 8 11
28 33 42 43 49 51 37 38 38 37 38 35 27 34 34 34 35 30 21 18 16 16 16 17 17 16 15 13 13 12 12 10 10 10 11 11 10 9 10 10 8 7 4 4 1 2 5 6 8
26 39 47 47 48 47 41 44 40 37 41 36 34 38 33 34 30 29 24 23 20 18 19 19 19 19 19 15 14 13 12 11 10 10 11 11 12 11 10 11 9 9 8 5 3 4 3 3 4
29 37 39 36 38 45 47 47 47 46 49 47 45 33 36 34 30 30 31 30 27 23 21 21 22 22 20 18 16 15 13 12 11 11 12 13 12 12 11 11 10 10 10 7 5 5 5 5 4
29 37 34 35 37 40 44 48 43 49 57 44 46 44 41 38 35 33 36 35 37 31 25 24 24 23 22 20 19 18 15 14 13 12 12 13 13 13 12 12 11 11 9 9 8 7 7 5 3
32 28 31 34 35 38 44 43 49 51 58 51 50 43 46 45 41 39 39 39 37 37 31 26 26 25 26 23 21 20 18 16 15 14 13 13 14 15 14 13 14 12 10 10 10 10 9 7 5
28 30 30 31 35 39 40 46 49 55 53 51 52 51 45 45 44 41 42 40 39 38 36 28 27 28 25 25 23 22 20 18 16 15 15 14 14 15 15 15 15 14 11 11 11 12 11 9 8
22 29 33 34 34 37 42 48 40 49 46 50 50 51 50 51 50 47 45 45 43 43 32 33 30 28 25 27 25 23 22 19 17 16 16 15 16 15 15 15 15 15 13 12 11 11 11 11 11
24 29 33 34 34 35 32 44 40 42 42 48 51 49 49 49 50 50 47 48 43 44 45 44 31 30 28 30 28 25 23 20 20 19 18 16 15 16 15 15 15 16 15 14 13 13 14 14 14
27 24 26 28 30 32 28 48 38 34 36 43 46 47 47 47 49 48 48 46 44 40 40 41 30 32 31 25 26 27 25 23 22 20 17 16 16 15 15 15 16 17 16 15 14 13 15 15 15
20 23 24 29 22 25 25 38 31 25 28 44 48 49 47 44 44 46 46 46 44 42 41 48 40 28 28 23 23 30 27 23 23 20 18 15 15 15 14 15 16 15 17 17 16 16 16 17 18
22 23 23 24 20 23 23 20 42 42 36 45 48 49 48 46 45 43 41 41 45 42 37 41 44 29 28 25 23 25 28 26 24 22 21 17 16 15 15 16 16 15 16 16 16 17 17 19 18
19 21 22 20 18 16 18 32 33 19 28 41 48 49 49 46 44 44 42 41 42 39 38 39 41 28 25 16 22 25 29 27 25 23 20 18 17 17 17 17 16 15 16 15 14 16 17 20 17
19 19 18 18 16 12 14 32 41 18 17 36 46 49 49 45 44 45 43 40 39 40 35 40 41 37 23 20 17 17 28 29 25 25 23 20 19 19 18 17 17 15 18 17 17 18 19 21 18
20 18 18 18 20 14 11 32 32 18 16 19 44 47 46 47 46 46 44 42 38 39 36 31 35 35 21 22 17 16 20 23 23 24 24 17 23 22 20 19 18 18 18 20 19 20 20 21 21
24 23 22 20 21 21 20 31 31 21 2 3 38 42 45 46 45 46 44 42 41 39 34 29 27 29 19 16 20 19 17 14 21 19 19 17 13 14 15 20 19 20 22 21 21 20 22 22 24
22 21 20 17 11 10 13 10 14 25 24 25 25 30 36 40 42 45 43 40 38 37 33 31 25 25 28 23 17 18 19 19 16 14 14 12 12 12 14 15 14 15 17 19 21 24 25 26 25
17 22 17 12 8 8 12 9 15 23 31 33 31 30 31 35 38 41 40 36 35 31 33 26 25 22 21 25 18 21 20 19 16 15 15 15 14 15 13 13 16 17 17 19 19 22 25 24 25
17 23 16 15 13 9 16 11 17 31 35 32 33 32 33 32 34 37 38 35 34 31 29 24 24 21 22 23 19 23 28 23 18 17 16 15 15 21 20 18 17 18 19 22 23 24 21 22 24
19 12 14 16 14 7 11 13 15 37 39 27 31 36 32 31 32 33 34 32 31 27 27 25 22 17 18 19 19 10 23 28 26 25 23 22 22 24 24 28 25 26 27 26 26 26 26 25 24
16 17 8 11 8 12 12 23 20 40 35 34 30 19 25 27 27 27 25 24 24 24 25 23 18 16 17 16 15 20 21 18 16 14 15 18 15 17 19 19 21 24 25 25 25 27 24 23 26
19 22 18 18 15 15 16 20 14 28 27 27 14 3 11 15 16 17 17 15 13 12 12 12 8 8 10 12 13 16 18 14 12 10 10 14 13 18 18 21 20 26 25 23 23 23 22 22 24
23 23 17 13 12 13 11 14 10 15 21 18 14 5 4 8 12 13 13 10 7 6 6 6 8 6 8 11 13 16 19 16 15 13 15 16 17 19 21 22 23 24 25 25 24 24 24 24 24
25 27 22 22 22 16 16 18 8 11 13 14 12 5 4 8 10 11 11 8 5 4 3 2 1 4 7 10 12 18 17 22 19 18 17 19 19 21 22 24 24 25 26 26 26 26 26 25 26
Wind_Direction
316 312 316 304 298 293 284 286 292 293 292 290 292 290 285 272 271 274 300 299 277 194 181 169 161 158 155 151 147 144 144 138 138 135 135 128 121 113 104 92 85 83 84 82 83 80 77 71 61
316 318 309 302 287 281 284 279 287 288 287 291 287 285 284 275 279 281 289 282 256 173 179 178 172 165 161 157 153 149 146 142 141 143 150 147 139 123 114 99 91 89 88 90 92 90 84 75 65
322 317 301 291 282 265 286 288 286 287 284 281 281 283 284 282 286 290 293 270 243 192 189 188 178 175 168 165 158 156 150 147 144 147 153 169 165 145 133 110 99 94 93 96 96 95 92 86 70
321 312 301 283 274 286 283 290 291 290 288 281 281 277 280 286 286 290 290 261 233 212 197 189 179 181 177 171 164 164 157 156 153 154 157 173 175 178 182 133 112 99 95 97 97 96 94 89 77
325 307 288 284 282 283 285 287 282 280 286 285 282 270 273 282 291 288 288 254 223 216 208 193 187 182 180 179 171 171 168 166 172 177 168 170 192 199 188 214 155 114 96 90 94 94 92 85 81
309 305 288 283 284 286 288 287 281 278 281 281 280 274 273 284 292 288 277 254 237 230 234 220 195 198 186 186 183 179 181 180 197 201 204 177 207 220 219 205 211 170 105 87 84 87 82 78 80
305 296 288 285 284 284 286 291 286 278 276 278 280 273 274 276 284 278 272 257 242 241 235 229 220 206 197 191 189 185 185 191 196 215 223 202 214 226 231 230 229 233 225 87 69 73 72 70 78
308 298 292 289 286 283 288 291 287 284 275 285 281 270 271 278 282 273 264 259 245 241 234 230 225 223 217 208 200 193 189 192 197 208 221 220 219 223 237 239 240 244 247 267 330 27 58 64 74
313 297 291 289 286 285 289 285 284 284 278 276 274 274 277 285 285 269 259 254 249 243 236 229 227 228 232 225 212 205 196 196 209 220 217 218 230 227 235 244 245 249 254 263 287 313 356 20 55
308 300 298 298 294 289 287 284 282 279 274 271 271 272 277 280 280 268 261 254 248 243 237 230 229 230 230 230 224 220 208 210 218 223 223 229 230 233 236 242 245 253 259 262 275 299 309 321 332
312 300 305 303 301 298 292 285 283 276 268 269 267 271 272 274 272 268 262 259 255 249 242 232 230 227 228 231 229 229 225 222 229 221 222 232 231 235 238 243 250 254 259 267 275 288 297 304 314
310 311 309 309 308 303 294 291 281 275 269 271 268 267 269 265 266 264 261 258 258 252 244 233 227 227 228 232 230 230 226 230 231 230 225 228 235 237 237 242 249 254 259 266 274 282 288 292 293
313 315 314 311 309 302 301 290 285 276 272 270 266 265 263 261 260 263 260 258 258 257 246 233 226 225 223 228 229 230 228 230 231 231 232 230 238 239 239 244 250 255 259 266 273 280 283 283 284
327 320 314 313 309 304 297 292 289 279 277 268 264 259 260 259 258 260 258 255 256 253 260 234 227 222 218 225 225 228 230 231 231 234 235 232 240 240 239 244 249 255 260 267 273 277 282 283 284
327 318 314 309 309 304 303 290 284 286 279 267 261 259 259 257 255 254 255 253 255 257 255 241 222 221 220 222 222 225 229 230 232 236 239 237 238 241 241 244 249 254 260 266 273 278 283 284 286
325 322 320 329 320 311 302 287 288 289 285 269 262 259 258 256 253 253 252 252 251 256 253 258 224 226 217 207 220 226 228 230 233 236 238 237 242 241 242 246 252 256 260 265 269 273 280 283 285
338 326 324 328 330 319 303 294 290 295 295 275 264 258 255 255 253 251 250 249 247 250 251 242 246 230 218 218 223 225 227 229 234 236 238 237 240 242 243 249 254 255 260 264 267 274 278 281 286
336 329 327 323 334 319 305 258 275 287 295 275 262 256 252 251 249 248 251 250 245 246 253 249 245 251 224 215 227 229 230 231 234 237 240 240 243 242 247 254 256 257 261 263 267 272 278 285 284
330 328 319 317 323 303 290 248 241 278 293 276 259 253 248 248 248 248 249 250 242 244 244 241 241 252 241 220 224 225 228 232 235 240 240 241 243 246 247 255 256 258 261 260 263 274 276 283 286
338 328 317 325 343 332 270 253 254 277 273 277 258 252 247 245 245 245 246 248 240 239 243 240 242 248 220 224 219 229 231 235 238 241 244 245 245 248 248 252 256 258 264 267 266 271 277 282 282
347 342 338 334 348 344 283 275 305 314 240 231 260 251 247 242 242 242 242 244 241 239 240 248 245 241 236 228 231 230 229 240 240 243 247 244 251 252 253 253 260 260 265 265 267 271 268 279 282
353 360 352 347 351 1 20 328 327 350 33 233 261 252 244 240 240 239 240 241 242 241 241 250 251 255 259 236 208 197 218 213 242 239 246 248 222 228 237 254 259 267 266 269 270 267 272 279 282
357 348 340 329 322 345 15 42 29 346 325 305 296 267 250 241 238 235 236 240 241 241 243 247 256 262 262 254 238 235 235 240 243 236 235 222 229 228 243 242 248 252 259 266 273 271 270 275 282
354 356 346 15 42 39 32 53 40 356 317 301 282 271 257 243 238 234 235 239 238 240 240 245 249 261 263 265 277 247 233 240 242 247 244 250 252 255 248 253 263 267 266 266 269 272 272 268 274
6 14 28 47 48 55 26 41 15 340 316 296 280 265 253 244 235 231 230 231 235 238 237 238 243 259 269 270 293 272 264 255 252 253 254 254 262 271 275 277 278 279 277 280 283 281 274 277 281
22 30 39 37 47 34 28 46 19 330 317 290 272 255 242 236 232 228 227 230 233 238 234 236 245 259 279 282 283 325 282 257 264 263 265 271 272 281 288 285 292 295 295 297 301 303 296 291 291
23 29 9 46 47 53 68 11 10 326 320 317 297 243 231 229 224 221 224 230 233 237 232 238 251 267 283 297 298 326 308 298 281 286 294 283 297 307 309 317 312 311 313 315 310 301 306 310 309
36 33 49 45 52 58 72 62 308 323 321 323 333 220 226 223 217 212 215 222 227 232 224 226 241 273 302 314 327 342 325 329 336 334 331 338 330 338 335 332 329 329 330 331 334 330 324 321 321
38 39 55 56 76 71 82 85 54 328 320 322 7 29 161 188 187 187 193 196 202 210 217 224 237 281 320 345 4 1 357 354 356 347 345 347 354 344 346 344 343 344 343 340 347 346 340 341 335
53 39 51 62 67 92 97 95 36 341 332 340 6 32 117 153 155 159 164 154 150 175 167 189 282 13 354 11 10 10 5 12 6 10 5 3 5 1 358 0 356 355 354 352 352 350 343 341 340